Find Starlink 30400

NORAD ID: 57937 Int'l Des: 2023-148 Owner: SPXS Country: US Constellation: starlink operational
LEOCIRCULAR

实时位置

正在加载3D地球...

关于 Starlink 30400

正在加载描述...

即将过境

Passes for default location (London). Set your location on the main map for personalized predictions.

高度历史

Loading altitude history...

两行轨道根数

1 57937U 23148C 26121.27106272 .00000344 00000-0 23727-4 0 9994
2 57937 53.1579 139.9545 0001014 91.0401 269.0716 15.30203153146476
Epoch: May 1, 2026 • Age: 9 hours

当前状态

高度 494.0 km
速度 7.62 km/s
星下点 -52.28°S, 59.04°W
发射日期 Sep 25, 2023
运行时间 2.5 years
类型 internet

技术详情

分类 Payload
质量 730.00 kg
干质量 700.00 kg
总质量 730.00 kg
长度 0.30 m
直径 4.10 m
跨度 29.00 m
形状 Box + pan
制造商 SPXS
平台类型 Starlink V2M
阶段状态 In Orbit
所有者/国家 SPXS/US

Most Searched